KOMPSAT-3A

Last updated on Fri Oct 04 2024 00:02:25 GMT+0000 (Coordinated Universal Time)

1 40536U 15014A 24277.51513744 .00028378 00000+0 11068-2 0 9996 2 40536 97.6234 229.3900 0000671 2.1224 358.0017 15.25898558526183
UTC large
Height (km)
Speed (km/s)
/
Latitude / Longitude
Inclination (degrees)
Orbital Period (minutes)
Azimuth
Elevation
Range (km)
Doppler Factor

Next 0 passes for location: London (51.5072 / 0.1276)

Sorry there are no passes over London.